Location: Dulzura
(32.6442°N, 116.7814°W)
Time: 15:10:20
(UTC+00:00)

BEESAT 3 - Visible Passes

Search period start: 20 March 2023 00:00
Search period end: 30 March 2023 00:00
Orbit: 415 x 442 km, 64.9° (Epoch: 19 March)

Date Brightness Start Highest point End Pass type
(mag) Time Alt. Az. Time Alt. Az. Time Alt. Az.
20 Mar ? 12:04:31 55° E 12:04:31 55° E 12:07:41 10° NE visible
21 Mar ? 11:22:51 15° ENE 11:22:51 15° ENE 11:23:44 10° ENE visible
21 Mar ? 12:56:04 16° WNW 12:56:37 16° NW 12:58:52 10° NNW visible
22 Mar ? 12:14:07 25° NNW 12:14:07 25° NNW 12:16:01 10° N visible
23 Mar ? 11:31:55 14° NNE 11:31:55 14° NNE 11:32:31 10° NNE visible
